Main page
METAR-TAF:

METAR-TAF

Airports :

Dyersburg Regional Airport

Dyersburg, Tennessee, United States

latitude: 36-00N, longitude: 089-24W, elevation: 338 ft

Current weather observation

The report was made 57 minutes ago, at 11:56 UTC
Calm wind
Temperature 63°F
Humidity 100%
Pressure 29.97 in. Hg
Visibility: 10 miles
Clear sky

METAR: KDYR 151156Z AUTO 00000KT 10SM CLR 17/17 A2997 RMK AO2 SLP154 6//// 7//// T01720172 10194 20161 53015

Time: 07:53 (12:53 UTC)


TAF: missing

Weather observations and forecasts of more than 4000 airports (METAR and TAF reports).

The available stations are represented by yellow and red dots on the map.

Hover mouse over dot to see the name of the station.

Then click to see weather observations and forecasts.

To change the map : click on the green buttons with a black cross to zoom in, on the green button with a dash to zoom out, or on the green arrows for adjacent maps.


METAR-TAF: